Location: York
(31.8935°S, 116.7682°E)
Time: 13:49:44
(UTC+08:00)

N. Korean satellite - Visible Passes

Search period start: 04 August 2020 00:00
Search period end: 14 August 2020 00:00
Orbit: 453 x 506 km, 97.2° (Epoch: 03 August)

Date Brightness Start Highest point End Pass type
(mag) Time Alt. Az. Time Alt. Az. Time Alt. Az.
04 Aug 7.6 04:58:20 10° NNE 05:01:04 45° NE 05:01:04 45° NE visible
04 Aug 7.7 18:02:43 10° S 18:06:17 47° WSW 18:09:45 10° NNW visible
05 Aug 9.0 04:33:05 10° NE 04:35:05 22° ENE 04:35:05 22° ENE visible
05 Aug 8.4 06:07:35 10° NW 06:09:20 14° W 06:09:20 14° W visible
06 Aug 10.0 04:08:54 10° E 04:09:06 11° E 04:09:06 11° E visible
06 Aug 7.4 05:40:17 10° NNW 05:43:22 30° WNW 05:43:22 30° WNW visible
06 Aug 9.7 18:45:49 10° SW 18:47:35 13° WSW 18:49:18 10° W visible
07 Aug 6.6 05:13:59 10° N 05:17:24 70° NW 05:17:24 70° NW visible
07 Aug 8.8 18:18:45 10° SSW 18:21:55 28° WSW 18:25:00 10° NW visible
08 Aug 7.8 04:48:19 10° NNE 04:51:27 42° E 04:51:27 42° E visible
09 Aug 9.3 04:23:22 10° ENE 04:25:29 19° E 04:25:29 19° E visible
09 Aug 8.0 05:56:39 10° NW 05:59:20 19° W 05:59:46 19° W visible
10 Aug 7.0 05:29:50 10° N 05:33:22 42° W 05:33:49 40° WSW visible
10 Aug 9.5 18:35:02 10° SSW 18:37:28 17° WSW 18:39:52 10° WNW visible
11 Aug 6.7 05:03:47 10° NNE 05:07:30 78° ESE 05:07:54 67° SSE visible
11 Aug 8.2 18:08:22 10° S 18:11:45 38° WSW 18:15:03 10° NW visible
12 Aug 8.3 04:38:22 10° NE 04:41:43 32° ESE 04:41:58 32° ESE visible
12 Aug 8.6 06:13:45 10° WNW 06:15:07 12° W 06:16:15 11° WSW visible
13 Aug 9.6 04:13:48 10° ENE 04:16:00 15° ESE 04:16:05 15° ESE visible
13 Aug 7.7 05:45:57 10° NNW 05:49:05 26° W 05:50:21 21° WSW visible
13 Aug 10.0 18:52:12 10° SW 18:52:57 11° WSW 18:53:43 10° W visible
